• In United Kingdom
  • List of Countries
  • For 7 days
  • Water Temperature
  • Satellite Maps
  • Weather Map
  • Weather Widgets
  • user-avatar
    Login

    Hourly Weather Salta

    Today, 24 October, Wednesday

    Time Temperature Precipitation Wind Pressure Humidity
    00:00 +18°C° 0 mm 1 mps 651 mmHg 86%
    01:00 +18°C° 0 mm 1 mps 651 mmHg 86%
    02:00 +18°C° 0 mm 1 mps 651 mmHg 86%
    03:00 +18°C° 0 mm 1 mps 651 mmHg 85%
    04:00 +18°C° 0 mm 1 mps 651 mmHg 84%
    05:00 +18°C° 0 mm 1 mps 651 mmHg 84%
    06:00 +19°C° 0 mm 1 mps 651 mmHg 75%
    07:00 +21°C° 0 mm 1 mps 652 mmHg 66%
    08:00 +22°C° 0 mm 1 mps 652 mmHg 58%
    09:00 +24°C° 0 mm 2 mps 652 mmHg 54%
    10:00 +26°C° 0 mm 2 mps 652 mmHg 49%
    11:00 +27°C° 0 mm 2 mps 652 mmHg 45%
    12:00 +28°C° 0 mm 3 mps 652 mmHg 45%
    13:00 +28°C° 0 mm 3 mps 651 mmHg 45%
    14:00 +29°C° 0 mm 3 mps 651 mmHg 45%
    15:00 +28°C° 0 mm 3 mps 650 mmHg 50%
    16:00 +27°C° 0 mm 3 mps 649 mmHg 55%
    17:00 +26°C° 0 mm 3 mps 649 mmHg 60%
    18:00 +25°C° 0.1 mm 3 mps 649 mmHg 67%
    19:00 +24°C° 0.1 mm 2 mps 650 mmHg 74%
    20:00 +21°C° 0.1 mm 2 mps 650 mmHg 81%
    21:00 +21°C° 0.1 mm 2 mps 651 mmHg 82%
    22:00 +21°C° 0.1 mm 1 mps 651 mmHg 84%
    23:00 +21°C° 0.1 mm 1 mps 651 mmHg 86%

    Tomorrow, 25 October, Thursday

    Time Temperature Precipitation Wind Pressure Humidity
    00:00 +21°C° 0.1 mm 1 mps 651 mmHg 86%
    01:00 +20°C° 0.1 mm 1 mps 651 mmHg 87%
    02:00 +20°C° 0.1 mm 1 mps 651 mmHg 88%
    03:00 +20°C° 0.1 mm 1 mps 651 mmHg 88%
    04:00 +20°C° 0.1 mm 1 mps 650 mmHg 89%
    05:00 +20°C° 0.1 mm 1 mps 650 mmHg 89%
    06:00 +21°C° 0.1 mm 1 mps 651 mmHg 84%
    07:00 +21°C° 0.1 mm 1 mps 652 mmHg 79%
    08:00 +22°C° 0.1 mm 1 mps 652 mmHg 73%
    09:00 +23°C° 0.1 mm 2 mps 652 mmHg 69%
    10:00 +24°C° 0.1 mm 2 mps 653 mmHg 65%
    11:00 +25°C° 0.1 mm 2 mps 653 mmHg 60%
    12:00 +26°C° 0.1 mm 2 mps 652 mmHg 59%
    13:00 +26°C° 0.1 mm 2 mps 651 mmHg 57%
    14:00 +27°C° 0.1 mm 3 mps 650 mmHg 55%
    15:00 +26°C° 0.1 mm 3 mps 649 mmHg 59%
    16:00 +25°C° 0.1 mm 2 mps 649 mmHg 63%
    17:00 +24°C° 0.1 mm 2 mps 648 mmHg 67%
    18:00 +23°C° 0.2 mm 2 mps 649 mmHg 72%
    19:00 +21°C° 0.2 mm 2 mps 650 mmHg 77%
    20:00 +20°C° 0.2 mm 2 mps 650 mmHg 82%
    21:00 +20°C° 0.4 mm 2 mps 651 mmHg 83%
    22:00 +20°C° 0.4 mm 2 mps 651 mmHg 85%
    23:00 +19°C° 0.4 mm 2 mps 651 mmHg 86%

    Day after tomorrow, 26 October, Friday

    Time Temperature Precipitation Wind Pressure Humidity
    00:00 +20°C° 0.1 mm 1 mps 651 mmHg 86%
    01:00 +20°C° 0.1 mm 1 mps 650 mmHg 86%
    02:00 +20°C° 0.1 mm 1 mps 650 mmHg 87%
    03:00 +20°C° 0.1 mm 1 mps 650 mmHg 87%
    04:00 +20°C° 0.1 mm 1 mps 650 mmHg 87%
    05:00 +20°C° 0.1 mm 1 mps 650 mmHg 86%
    06:00 +20°C° 0 mm 1 mps 651 mmHg 82%
    07:00 +21°C° 0 mm 1 mps 651 mmHg 78%
    08:00 +22°C° 0 mm 1 mps 652 mmHg 73%
    09:00 +23°C° 0.1 mm 2 mps 652 mmHg 69%
    10:00 +24°C° 0.1 mm 2 mps 652 mmHg 64%
    11:00 +25°C° 0.1 mm 2 mps 652 mmHg 60%
    12:00 +25°C° 0.1 mm 2 mps 652 mmHg 60%
    13:00 +25°C° 0.1 mm 2 mps 651 mmHg 59%
    14:00 +26°C° 0.1 mm 2 mps 650 mmHg 59%
    15:00 +25°C° 0.1 mm 2 mps 650 mmHg 62%
    16:00 +25°C° 0.1 mm 3 mps 649 mmHg 65%
    17:00 +24°C° 0.1 mm 3 mps 649 mmHg 68%
    18:00 +23°C° 0.2 mm 2 mps 649 mmHg 73%
    19:00 +21°C° 0.2 mm 2 mps 650 mmHg 79%
    20:00 +21°C° 0.2 mm 1 mps 651 mmHg 85%
    21:00 +21°C° 0.4 mm 1 mps 651 mmHg 85%
    22:00 +21°C° 0.4 mm 1 mps 652 mmHg 85%
    23:00 +20°C° 0.4 mm 1 mps 652 mmHg 85%

    27 October, Saturday

    Time Temperature Precipitation Wind Pressure Humidity
    00:00 +20°C° 0.2 mm 1 mps 652 mmHg 85%
    01:00 +20°C° 0.2 mm 1 mps 652 mmHg 86%
    02:00 +20°C° 0.2 mm 1 mps 651 mmHg 87%
    03:00 +19°C° 0.1 mm 1 mps 651 mmHg 87%
    04:00 +19°C° 0.1 mm 1 mps 651 mmHg 88%
    05:00 +19°C° 0.1 mm 1 mps 651 mmHg 88%
    06:00 +20°C° 0.1 mm 1 mps 652 mmHg 85%
    07:00 +20°C° 0.1 mm 1 mps 652 mmHg 81%
    08:00 +21°C° 0.1 mm 1 mps 653 mmHg 77%
    09:00 +21°C° 0.1 mm 2 mps 653 mmHg 72%
    10:00 +23°C° 0.1 mm 2 mps 652 mmHg 67%
    11:00 +25°C° 0.1 mm 3 mps 652 mmHg 62%
    12:00 +25°C° 0.1 mm 3 mps 651 mmHg 62%
    13:00 +25°C° 0.1 mm 3 mps 651 mmHg 61%
    14:00 +26°C° 0.1 mm 2 mps 650 mmHg 60%
    15:00 +25°C° 0.2 mm 3 mps 649 mmHg 63%
    16:00 +24°C° 0.2 mm 3 mps 649 mmHg 67%
    17:00 +24°C° 0.2 mm 3 mps 648 mmHg 70%
    18:00 +23°C° 0.2 mm 2 mps 649 mmHg 74%
    19:00 +21°C° 0.2 mm 2 mps 649 mmHg 78%
    20:00 +20°C° 0.2 mm 2 mps 650 mmHg 83%
    21:00 +21°C° 0.2 mm 1 mps 650 mmHg 83%
    22:00 +21°C° 0.2 mm 1 mps 650 mmHg 83%
    23:00 +21°C° 0.2 mm 1 mps 650 mmHg 83%

    28 October, Sunday

    Time Temperature Precipitation Wind Pressure Humidity
    00:00 +20°C° 0 mm 1 mps 650 mmHg 84%
    01:00 +20°C° 0 mm 1 mps 649 mmHg 85%
    02:00 +20°C° 0 mm 1 mps 649 mmHg 87%
    03:00 +19°C° 0 mm 1 mps 649 mmHg 87%
    04:00 +19°C° 0 mm 1 mps 649 mmHg 87%
    05:00 +19°C° 0 mm 1 mps 649 mmHg 87%
    06:00 +20°C° 0 mm 1 mps 650 mmHg 82%
    07:00 +21°C° 0 mm 1 mps 650 mmHg 77%
    08:00 +22°C° 0 mm 1 mps 651 mmHg 72%
    09:00 +23°C° 0 mm 2 mps 651 mmHg 67%
    10:00 +25°C° 0 mm 2 mps 651 mmHg 62%
    11:00 +26°C° 0 mm 3 mps 651 mmHg 57%
    12:00 +26°C° 0.1 mm 3 mps 650 mmHg 60%
    13:00 +25°C° 0.1 mm 3 mps 649 mmHg 62%
    14:00 +25°C° 0.1 mm 3 mps 648 mmHg 65%
    15:00 +25°C° 0.1 mm 3 mps 648 mmHg 67%
    16:00 +25°C° 0.1 mm 3 mps 647 mmHg 68%
    17:00 +24°C° 0.1 mm 2 mps 647 mmHg 70%
    18:00 +23°C° 0 mm 2 mps 647 mmHg 73%
    19:00 +23°C° 0 mm 2 mps 648 mmHg 77%
    20:00 +22°C° 0 mm 1 mps 649 mmHg 80%
    21:00 +22°C° 0 mm 1 mps 649 mmHg 80%
    22:00 +21°C° 0 mm 1 mps 649 mmHg 80%
    23:00 +21°C° 0 mm 1 mps 649 mmHg 80%

    29 October, Monday

    Time Temperature Precipitation Wind Pressure Humidity
    00:00 +21°C° 0 mm 1 mps 649 mmHg 81%
    01:00 +21°C° 0 mm 1 mps 649 mmHg 82%
    02:00 +20°C° 0 mm 1 mps 648 mmHg 82%
    03:00 +20°C° 0 mm 1 mps 648 mmHg 82%
    04:00 +20°C° 0 mm 1 mps 648 mmHg 81%
    05:00 +20°C° 0 mm 1 mps 648 mmHg 80%
    06:00 +21°C° 0 mm 1 mps 649 mmHg 74%
    07:00 +23°C° 0 mm 1 mps 650 mmHg 67%
    08:00 +24°C° 0 mm 2 mps 651 mmHg 61%
    09:00 +25°C° 0 mm 2 mps 651 mmHg 58%
    10:00 +27°C° 0 mm 2 mps 650 mmHg 55%
    11:00 +28°C° 0 mm 3 mps 650 mmHg 52%
    12:00 +29°C° 0 mm 3 mps 650 mmHg 51%
    13:00 +29°C° 0 mm 3 mps 649 mmHg 49%
    14:00 +30°C° 0 mm 3 mps 649 mmHg 48%
    15:00 +30°C° 0.1 mm 3 mps 648 mmHg 52%
    16:00 +29°C° 0.1 mm 3 mps 648 mmHg 55%
    17:00 +28°C° 0.1 mm 3 mps 647 mmHg 58%
    18:00 +27°C° 0.2 mm 3 mps 648 mmHg 65%
    19:00 +26°C° 0.2 mm 2 mps 648 mmHg 71%
    20:00 +24°C° 0.2 mm 2 mps 649 mmHg 77%
    21:00 +24°C° 0.1 mm 1 mps 649 mmHg 79%
    22:00 +23°C° 0.1 mm 1 mps 649 mmHg 81%
    23:00 +23°C° 0.1 mm 1 mps 649 mmHg 82%

    30 October, Tuesday

    Time Temperature Precipitation Wind Pressure Humidity
    00:00 +23°C° 0 mm 1 mps 649 mmHg 82%
    01:00 +22°C° 0 mm 1 mps 648 mmHg 82%
    02:00 +22°C° 0 mm 1 mps 648 mmHg 81%
    03:00 +22°C° 0 mm 1 mps 648 mmHg 80%
    04:00 +21°C° 0 mm 1 mps 648 mmHg 78%
    05:00 +21°C° 0 mm 1 mps 648 mmHg 76%
    06:00 +23°C° 0 mm 1 mps 649 mmHg 70%
    07:00 +24°C° 0 mm 1 mps 650 mmHg 64%
    08:00 +25°C° 0 mm 1 mps 650 mmHg 58%
    09:00 +27°C° 0 mm 2 mps 651 mmHg 55%
    10:00 +28°C° 0 mm 2 mps 651 mmHg 52%
    11:00 +29°C° 0 mm 2 mps 651 mmHg 49%
    12:00 +30°C° 0.1 mm 3 mps 650 mmHg 48%
    13:00 +31°C° 0.1 mm 3 mps 650 mmHg 48%
    14:00 +33°C° 0.1 mm 3 mps 649 mmHg 47%
    15:00 +31°C° 0.2 mm 3 mps 649 mmHg 50%
    16:00 +30°C° 0.2 mm 3 mps 649 mmHg 53%
    17:00 +30°C° 0.2 mm 3 mps 648 mmHg 57%
    18:00 +28°C° 0.1 mm 2 mps 648 mmHg 64%
    19:00 +26°C° 0.1 mm 2 mps 649 mmHg 71%
    20:00 +25°C° 0.1 mm 1 mps 649 mmHg 78%
    21:00 +25°C° 0.2 mm 1 mps 649 mmHg 78%
    22:00 +24°C° 0.2 mm 1 mps 649 mmHg 79%
    23:00 +24°C° 0.2 mm 1 mps 650 mmHg 80%
    Show more